[[{"header":{"parameterUnit":"m.s-1","parameterCategory":2,"la1":30.2991,"la2":30.254,"lo1":-89.0895,"lo2":-89.0444,"dy":0.0017,"dx":0.0017,"nx":28,"ny":28,"refTime":"2024-09-02T09:00:00:Z","depth":"0","parameterNumber":2,"parameterNumberName":"U-component_of_CURRENTS"},"data":[0,0,0,0,0,0,0,0,0,0,0,0,0,0,0,0,0,0,0,0,0,0,0,0,0,0,0,0,0,0,0,0,0,0,0,0,0,0,0,0,0,0,0,0,0,0,0,0,0,0,0,0,0,0,0,0,0,0,-0.2662,-0.2661,0,-0.2616,-0.2616,-0.2615,-0.2643,-0.2644,-0.2645,-0.2647,-0.2599,-0.2597,-0.2595,0,0,0,0,0,0,0,0,0,0,0,0,0,-0.2672,-0.2672,-0.2662,-0.2661,-0.266,-0.2616,-0.2616,-0.2615,-0.2643,-0.2644,-0.2646,-0.2647,-0.26,-0.2597,-0.2594,0,0,0,0,0,0,0,0,0,0,0,0,0,-0.2652,-0.2672,-0.2662,-0.2668,-0.2669,-0.2616,-0.2616,-0.2615,-0.2642,-0.2644,-0.2646,-0.2648,-0.2601,-0.2598,-0.2594,-0.2534,0,0,-0.2583,-0.2581,0,0,0,0,0,0,0,0,-0.2653,-0.2651,-0.2668,-0.2668,-0.2668,-0.2637,-0.2602,-0.2588,-0.2642,-0.2653,-0.2647,-0.2649,-0.261,-0.2606,-0.2594,-0.2532,-0.253,-0.2583,-0.258,-0.2579,-0.2578,0,0,0,0,0,0,0,-0.2654,-0.2653,-0.2644,-0.2667,-0.2667,-0.2639,-0.2639,-0.2599,-0.2622,-0.2652,-0.2654,-0.2647,-0.261,-0.2597,-0.2593,-0.2529,-0.2583,-0.258,-0.2577,-0.2576,-0.2501,-0.2501,0,0,0,0,0,0,-0.2662,-0.2655,-0.2646,-0.2643,-0.2664,-0.2638,-0.2638,-0.2645,-0.2622,-0.262,-0.2646,-0.2649,-0.2603,-0.2597,-0.2591,-0.2583,-0.2579,-0.2575,-0.2573,-0.2501,-0.2501,-0.2501,0,0,0,0,0,0,-0.2663,-0.2662,-0.2648,-0.2646,-0.2643,-0.2636,-0.2644,-0.2643,-0.2641,-0.2617,-0.2616,-0.2645,-0.2604,-0.2596,-0.2571,-0.2579,-0.2574,-0.2571,-0.25,-0.2501,-0.2501,-0.2524,0,0,0,0,0,0,-0.2663,-0.2663,-0.2666,-0.2647,-0.2643,-0.2631,-0.2642,-0.2641,-0.2633,-0.2637,-0.2616,-0.2613,-0.2605,-0.2577,-0.2567,-0.2574,-0.2568,-0.25,-0.25,-0.2501,-0.2523,-0.2525,-0.2527,0,0,0,0,0,-0.2664,-0.2656,-0.2667,-0.2666,-0.265,-0.2631,-0.2626,-0.2627,-0.2631,-0.2632,-0.2619,-0.2614,-0.2574,-0.2573,-0.2562,-0.2568,-0.25,-0.25,-0.2501,-0.2522,-0.2525,-0.2527,0,0,0,0,0,0,-0.2657,-0.2657,-0.267,-0.2663,-0.2658,-0.2636,-0.262,-0.2624,-0.2611,-0.2612,-0.2599,-0.2595,-0.2583,-0.2564,-0.2565,-0.255,-0.2542,-0.254,-0.2562,-0.2564,-0.2565,-0.2581,-0.2565,0,0,0,0,0,-0.2658,-0.2651,-0.2655,-0.2644,-0.2643,-0.2632,-0.2622,-0.2627,-0.2612,-0.2609,-0.2594,-0.258,-0.2571,-0.256,-0.2544,-0.2516,-0.2516,-0.2519,-0.252,-0.2522,-0.2528,-0.254,-0.2543,-0.2502,-0.2502,-0.2502,0,0,-0.2641,-0.2645,-0.2636,-0.2641,-0.263,-0.2629,-0.2631,-0.2615,-0.262,-0.2601,-0.259,-0.2579,-0.2565,-0.2553,-0.2546,-0.254,-0.2533,-0.2523,-0.2524,-0.253,-0.2541,-0.2545,-0.2548,-0.2503,-0.2503,-0.2503,0,0,-0.2614,-0.2619,-0.2614,-0.2617,-0.2615,-0.2612,-0.2613,-0.2602,-0.2607,-0.2588,-0.2592,-0.2586,-0.2549,-0.2556,-0.2552,-0.2547,-0.2544,-0.2545,-0.2561,-0.2571,-0.2575,-0.2578,-0.258,-0.2583,-0.2544,-0.2544,-0.2544,0,-0.2599,-0.261,-0.2606,-0.2614,-0.2615,-0.261,-0.2616,-0.2609,-0.2594,-0.2607,-0.2591,-0.2576,-0.2555,-0.2568,-0.2571,-0.2552,-0.2556,-0.2553,-0.2575,-0.2578,-0.2581,-0.2582,-0.2585,-0.2545,-0.2545,-0.2545,-0.2545,0,-0.2586,-0.2596,-0.2586,-0.2605,-0.2604,-0.2598,-0.2605,-0.2605,-0.2602,-0.2612,-0.262,-0.2591,-0.2594,-0.2585,-0.2569,-0.2588,-0.2584,-0.2578,-0.2571,-0.2587,-0.2586,-0.2589,-0.2547,-0.2547,-0.2546,-0.2546,0,0,-0.2558,-0.2577,-0.2579,-0.2594,-0.2606,-0.2601,-0.261,-0.2632,-0.2656,-0.2637,-0.2667,-0.2639,-0.2641,-0.2637,-0.2624,-0.2622,-0.2632,-0.2607,-0.2607,-0.2612,-0.2654,-0.2565,-0.2559,-0.2635,-0.2636,-0.2636,-0.2644,0,-0.2558,-0.2576,-0.2588,-0.2597,-0.2608,-0.2618,-0.263,-0.2649,-0.2665,-0.2688,-0.2682,-0.2694,-0.2659,-0.266,-0.2656,-0.2642,-0.2642,-0.263,-0.2635,-0.2635,-0.2557,-0.2561,-0.2475,-0.2466,-0.2646,-0.2647,-0.2647,0,-0.2559,-0.2576,-0.2593,-0.2618,-0.2624,-0.2626,-0.2663,-0.2676,-0.2719,-0.2737,-0.2759,-0.2759,-0.2758,-0.272,-0.2709,-0.2706,-0.2683,-0.2665,-0.2665,-0.2577,-0.2551,-0.248,-0.2465,-0.2433,-0.2652,-0.2651,-0.2651,0,-0.2556,-0.2579,-0.2593,-0.26,-0.2628,-0.2638,-0.2648,-0.2693,-0.2732,-0.2773,-0.281,-0.2812,-0.2817,-0.279,-0.2742,-0.2733,-0.2728,-0.2712,-0.2615,-0.2609,-0.2532,-0.2517,-0.2488,-0.2711,-0.2711,-0.2711,-0.2711,0,-0.2566,-0.2573,-0.2589,-0.2601,-0.2621,-0.2636,-0.268,-0.2699,-0.2762,-0.282,-0.2832,-0.2863,-0.2836,-0.2829,-0.2774,-0.2697,-0.2754,-0.2617,-0.2604,-0.2535,-0.2521,-0.2486,-0.2509,-0.2712,-0.2712,-0.2712,-0.2712,0,-0.2563,-0.2574,-0.2586,-0.2612,-0.2621,-0.2629,-0.2693,-0.2742,-0.2789,-0.2864,-0.2879,-0.2916,-0.287,-0.2835,-0.279,-0.2734,-0.2617,-0.2633,-0.2544,-0.2518,-0.2358,-0.2385,-0.2335,-0.2269,-0.2514,-0.2512,-0.251,0,-0.2558,-0.2566,-0.2589,-0.2606,-0.2616,-0.2647,-0.269,-0.2745,-0.2808,-0.2885,-0.2922,-0.291,-0.2869,-0.2767,-0.2663,-0.2551,-0.2531,-0.2428,-0.2378,-0.2331,-0.2355,-0.2355,-0.2304,-0.2294,-0.2291,-0.2288,-0.2286,0,-0.2546,-0.2549,-0.2573,-0.2604,-0.2635,-0.2677,-0.2732,-0.2774,-0.2849,-0.2885,-0.289,-0.2847,-0.2764,-0.2588,-0.2466,-0.2389,-0.2356,-0.2362,-0.235,-0.2203,-0.2169,-0.2105,-0.2311,-0.2261,-0.2263,-0.2265,-0.2266,-0.2267,-0.2521,-0.253,-0.2554,-0.2582,-0.2628,-0.2652,-0.2639,-0.2705,-0.2722,-0.2697,-0.2765,-0.2648,-0.2542,-0.2317,-0.2246,-0.2099,-0.2151,-0.2031,-0.2078,-0.2087,-0.199,-0.2124,-0.2031,-0.2032,-0.2033,-0.2034,-0.2035,0,-0.2465,-0.2488,-0.2529,-0.2542,-0.2562,-0.2592,-0.2633,-0.2577,-0.2519,-0.2507,-0.2445,-0.2332,-0.216,-0.2073,-0.1944,-0.1859,-0.1816,-0.1819,-0.1823,-0.1789,-0.1933,-0.1886,-0.1714,-0.1714,-0.1714,-0.1714,-0.1714,-0.1714,-0.2429,-0.2432,-0.2459,-0.2447,-0.246,-0.2401,-0.2371,-0.2274,-0.2216,-0.2035,-0.1968,-0.1981,-0.1936,-0.198,-0.1836,-0.175,-0.1705,-0.166,-0.1675,-0.1812,-0.1836,-0.1859,-0.1818,-0.1634,-0.1634,-0.1456,-0.1455,-0.1454]},{"header":{"parameterUnit":"m.s-1","parameterCategory":2,"la1":30.2991,"la2":30.254,"lo1":-89.0895,"lo2":-89.0444,"dy":0.0017,"dx":0.0017,"nx":28,"ny":28,"refTime":"2024-09-02T09:00:00:Z","depth":"0","parameterNumber":3,"parameterNumberName":"V-component_of_CURRENTS"},"data":[0,0,0,0,0,0,0,0,0,0,0,0,0,0,0,0,0,0,0,0,0,0,0,0,0,0,0,0,0,0,0,0,0,0,0,0,0,0,0,0,0,0,0,0,0,0,0,0,0,0,0,0,0,0,0,0,0,0,-0.0886,-0.0884,0,-0.0726,-0.0724,-0.0723,-0.0675,-0.0675,-0.0676,-0.0676,-0.0541,-0.0537,-0.0533,0,0,0,0,0,0,0,0,0,0,0,0,0,-0.1059,-0.1057,-0.0886,-0.0884,-0.0882,-0.0726,-0.0724,-0.0722,-0.0674,-0.0675,-0.0676,-0.0677,-0.0543,-0.0538,-0.0533,0,0,0,0,0,0,0,0,0,0,0,0,0,-0.0952,-0.1056,-0.0886,-0.0837,-0.0831,-0.0727,-0.0724,-0.0722,-0.0674,-0.0675,-0.0676,-0.0677,-0.0544,-0.0538,-0.0532,-0.0475,0,0,-0.0513,-0.051,0,0,0,0,0,0,0,0,-0.0959,-0.0946,-0.0847,-0.0841,-0.0834,-0.0719,-0.0735,-0.064,-0.0674,-0.0736,-0.0676,-0.0677,-0.0601,-0.059,-0.0561,-0.0469,-0.0463,-0.0512,-0.0508,-0.0506,-0.0504,0,0,0,0,0,0,0,-0.0966,-0.0952,-0.0825,-0.0844,-0.0836,-0.0792,-0.0779,-0.0717,-0.0668,-0.0731,-0.0726,-0.0705,-0.0598,-0.0567,-0.0557,-0.0461,-0.0512,-0.0507,-0.0503,-0.0501,-0.0322,-0.0321,0,0,0,0,0,0,-0.0985,-0.096,-0.083,-0.082,-0.0897,-0.0788,-0.0774,-0.0757,-0.0667,-0.0654,-0.0704,-0.0703,-0.0577,-0.0565,-0.0552,-0.0487,-0.0506,-0.05,-0.0496,-0.0323,-0.0322,-0.0321,0,0,0,0,0,0,-0.0989,-0.0975,-0.0836,-0.0884,-0.0863,-0.0785,-0.0766,-0.0753,-0.0725,-0.0647,-0.0634,-0.069,-0.0577,-0.0561,-0.049,-0.0482,-0.0497,-0.0491,-0.0324,-0.0323,-0.0321,-0.0352,0,0,0,0,0,0,-0.0995,-0.0978,-0.0968,-0.0886,-0.0861,-0.0779,-0.0764,-0.0749,-0.0709,-0.0706,-0.063,-0.0618,-0.0577,-0.05,-0.0484,-0.0473,-0.0487,-0.0326,-0.0324,-0.0322,-0.0352,-0.0352,-0.0351,0,0,0,0,0,-0.1002,-0.0977,-0.0968,-0.0952,-0.0852,-0.0778,-0.0761,-0.071,-0.0708,-0.069,-0.0635,-0.0621,-0.0478,-0.0493,-0.0475,-0.0463,-0.0327,-0.0324,-0.0322,-0.0353,-0.0352,-0.0351,0,0,0,0,0,0,-0.1034,-0.0967,-0.0956,-0.0911,-0.0855,-0.0769,-0.0737,-0.0712,-0.0654,-0.0652,-0.0595,-0.0577,-0.0516,-0.048,-0.0498,-0.0406,-0.0404,-0.0398,-0.0434,-0.0433,-0.0432,-0.0467,-0.0481,0,0,0,0,0,-0.1041,-0.1016,-0.0944,-0.0909,-0.0882,-0.0816,-0.0779,-0.0748,-0.0684,-0.066,-0.0608,-0.055,-0.049,-0.0456,-0.0399,-0.0338,-0.0303,-0.0322,-0.0321,-0.0321,-0.0337,-0.0263,-0.0258,-0.0314,-0.0314,-0.0314,0,0,-0.1043,-0.1003,-0.0988,-0.0916,-0.0868,-0.0828,-0.0796,-0.0741,-0.0716,-0.0653,-0.0602,-0.0544,-0.0473,-0.0409,-0.0379,-0.0379,-0.0284,-0.0318,-0.0319,-0.0335,-0.026,-0.0255,-0.025,-0.0312,-0.0312,-0.0313,0,0,-0.1035,-0.1001,-0.0981,-0.0938,-0.0871,-0.0831,-0.0822,-0.0744,-0.0718,-0.0655,-0.0608,-0.0542,-0.0455,-0.0397,-0.0358,-0.0318,-0.0285,-0.0308,-0.0329,-0.0257,-0.0252,-0.0248,-0.019,-0.018,-0.0306,-0.0306,-0.0306,0,-0.1046,-0.1009,-0.0961,-0.0928,-0.0897,-0.0841,-0.0816,-0.0771,-0.0686,-0.066,-0.0649,-0.0511,-0.0449,-0.0367,-0.0357,-0.0318,-0.0282,-0.0339,-0.0258,-0.0253,-0.0247,-0.0189,-0.0178,-0.0308,-0.0307,-0.0307,-0.0307,0,-0.1025,-0.0994,-0.0973,-0.0929,-0.0892,-0.0854,-0.0797,-0.0765,-0.0734,-0.0687,-0.0609,-0.0517,-0.0438,-0.0406,-0.0369,-0.0301,-0.0289,-0.0268,-0.0266,-0.0244,-0.0183,-0.0171,-0.0309,-0.0309,-0.0308,-0.0308,0,0,-0.1065,-0.098,-0.0977,-0.0964,-0.0893,-0.0866,-0.0826,-0.0771,-0.0751,-0.0673,-0.0628,-0.0521,-0.0478,-0.0432,-0.0369,-0.0311,-0.0232,-0.0286,-0.0281,-0.0241,-0.0085,-0.0053,-0.0036,-0.0201,-0.0199,-0.0198,-0.0056,0,-0.1072,-0.103,-0.0981,-0.0954,-0.0933,-0.0877,-0.085,-0.0797,-0.0744,-0.0686,-0.0593,-0.0523,-0.0485,-0.0443,-0.0376,-0.0262,-0.0203,-0.0274,-0.0102,-0.0098,-0.0081,-0.0022,-0.0019,0.011,-0.0043,-0.0041,-0.004,0,-0.1077,-0.1053,-0.1026,-0.0983,-0.0969,-0.095,-0.091,-0.0872,-0.0778,-0.0735,-0.065,-0.057,-0.0456,-0.0435,-0.0248,-0.0297,-0.0205,-0.0127,-0.0119,-0.0076,-0.0043,0.0065,0.0139,0.0251,-0.002,-0.0022,-0.0023,0,-0.1149,-0.109,-0.108,-0.1061,-0.0998,-0.099,-0.0966,-0.0893,-0.0866,-0.0762,-0.0717,-0.0582,-0.0487,-0.0369,-0.0192,-0.022,0.0009,0.0004,0.0116,0.0119,0.0161,0.0165,0.0352,0.012,0.012,0.0119,0.0119,0,-0.1182,-0.1173,-0.1118,-0.1113,-0.1128,-0.1057,-0.1054,-0.1009,-0.0927,-0.0871,-0.075,-0.0659,-0.0467,-0.0304,-0.0186,0.002,0.0029,0.012,0.0165,0.0152,0.0153,0.0283,0.0341,0.0125,0.0123,0.0122,0.0121,0,-0.1254,-0.1205,-0.1203,-0.1161,-0.1158,-0.1175,-0.1137,-0.1127,-0.103,-0.0947,-0.0909,-0.0696,-0.0473,-0.0282,-0.0043,0.0055,0.0321,0.029,0.0257,0.0294,0.0466,0.0521,0.0795,0.0883,0.0421,0.0423,0.0424,0,-0.1275,-0.128,-0.1271,-0.13,-0.1287,-0.1294,-0.1301,-0.121,-0.1174,-0.0954,-0.091,-0.0661,-0.0477,-0.0119,0.0099,0.0324,0.0434,0.0457,0.0403,0.0491,0.0587,0.0651,0.0709,0.0454,0.0456,0.0457,0.0458,0,-0.1338,-0.1339,-0.1353,-0.1423,-0.1446,-0.1444,-0.142,-0.1398,-0.1242,-0.1128,-0.0904,-0.0733,-0.0359,-0.007,0.0232,0.0364,0.0562,0.0489,0.0607,0.0651,0.0711,0.0811,0.0334,0.047,0.0469,0.0468,0.0467,0.0467,-0.1396,-0.1446,-0.1484,-0.1555,-0.158,-0.1565,-0.1545,-0.1466,-0.1362,-0.1135,-0.0949,-0.067,-0.0238,0.0191,0.0358,0.0681,0.0681,0.0744,0.0811,0.0874,0.0943,0.048,0.0647,0.0647,0.0647,0.0647,0.0647,0,-0.146,-0.1529,-0.1615,-0.1667,-0.1707,-0.1677,-0.1606,-0.1533,-0.1384,-0.117,-0.095,-0.0457,-0.0051,0.0343,0.0813,0.0981,0.104,0.1073,0.1156,0.1204,0.0815,0.0795,0.0971,0.0971,0.0971,0.0971,0.097,0.097,-0.1499,-0.1608,-0.1667,-0.1769,-0.179,-0.1762,-0.17,-0.1548,-0.1382,-0.1032,-0.0738,-0.0519,0.0087,0.086,0.1291,0.1321,0.1502,0.1496,0.1608,0.1301,0.1274,0.1249,0.1244,0.1511,0.1511,0.1968,0.1972,0.1975]}],[{"header":{"parameterUnit":"m.s-1","parameterCategory":2,"la1":30.2991,"la2":30.254,"lo1":-89.0895,"lo2":-89.0444,"dy":0.0017,"dx":0.0017,"nx":28,"ny":28,"refTime":"2024-09-02T09:00:00:Z","depth":"2","parameterNumber":2,"parameterNumberName":"U-component_of_CURRENTS"},"data":[0,0,0,0,0,0,0,0,0,0,0,0,0,0,0,0,0,0,0,0,0,0,0,0,0,0,0,0,0,0,0,0,0,0,0,0,0,0,0,0,0,0,0,0,0,0,0,0,0,0,0,0,0,0,0,0,0,0,-0.2273,-0.2274,0,-0.2367,-0.2368,-0.2369,-0.2455,-0.2456,-0.2457,-0.2458,-0.2405,-0.2403,-0.2401,0,0,0,0,0,0,0,0,0,0,0,0,0,-0.2219,-0.2219,-0.2273,-0.2274,-0.2275,-0.2367,-0.2368,-0.2369,-0.2455,-0.2456,-0.2457,-0.2458,-0.2406,-0.2403,-0.24,0,0,0,0,0,0,0,0,0,0,0,0,0,-0.2272,-0.2219,-0.2273,-0.2328,-0.2334,-0.2366,-0.2368,-0.237,-0.2455,-0.2456,-0.2458,-0.2459,-0.2407,-0.2403,-0.24,-0.2351,0,0,-0.239,-0.2388,0,0,0,0,0,0,0,0,-0.2268,-0.2274,-0.2319,-0.2324,-0.2331,-0.24,-0.233,-0.2356,-0.2455,-0.241,-0.2458,-0.246,-0.2388,-0.2386,-0.2405,-0.2349,-0.2347,-0.2389,-0.2387,-0.2386,-0.2385,0,0,0,0,0,0,0,-0.2265,-0.227,-0.2312,-0.232,-0.2327,-0.2365,-0.2374,-0.2336,-0.2388,-0.2414,-0.2421,-0.2428,-0.239,-0.2408,-0.2403,-0.2346,-0.2389,-0.2386,-0.2384,-0.2383,-0.2339,-0.234,0,0,0,0,0,0,-0.2246,-0.2266,-0.2309,-0.2314,-0.2301,-0.2364,-0.2374,-0.2377,-0.2392,-0.2397,-0.2427,-0.2432,-0.2413,-0.2407,-0.2402,-0.241,-0.2386,-0.2383,-0.2381,-0.2339,-0.234,-0.2341,0,0,0,0,0,0,-0.2244,-0.2249,-0.2305,-0.2292,-0.2302,-0.2363,-0.2366,-0.2378,-0.2408,-0.2403,-0.2406,-0.2446,-0.2414,-0.2406,-0.239,-0.2405,-0.2381,-0.2378,-0.2337,-0.2339,-0.234,-0.2382,0,0,0,0,0,0,-0.2242,-0.2247,-0.226,-0.229,-0.2302,-0.2326,-0.2365,-0.2379,-0.2409,-0.2417,-0.2419,-0.2416,-0.2414,-0.2395,-0.2387,-0.24,-0.2375,-0.2336,-0.2338,-0.234,-0.238,-0.2385,-0.2389,0,0,0,0,0,-0.224,-0.2242,-0.226,-0.2266,-0.2311,-0.2326,-0.2335,-0.2386,-0.2409,-0.2418,-0.243,-0.2416,-0.2401,-0.2392,-0.2382,-0.2395,-0.2336,-0.2338,-0.234,-0.2377,-0.2384,-0.2389,0,0,0,0,0,0,-0.2235,-0.2252,-0.2272,-0.2283,-0.2305,-0.234,-0.2356,-0.2383,-0.2404,-0.2412,-0.2411,-0.2407,-0.2407,-0.2388,-0.2379,-0.2391,-0.2371,-0.2371,-0.2404,-0.2409,-0.2414,-0.2422,-0.2373,0,0,0,0,0,-0.2235,-0.224,-0.2261,-0.2275,-0.2277,-0.2316,-0.2334,-0.2363,-0.2379,-0.2393,-0.2397,-0.2401,-0.2405,-0.2396,-0.2392,-0.2374,-0.2368,-0.2382,-0.2387,-0.2391,-0.2393,-0.2405,-0.2411,-0.2347,-0.2347,-0.2347,0,0,-0.2234,-0.225,-0.2253,-0.2275,-0.2294,-0.2315,-0.2331,-0.2351,-0.2387,-0.2374,-0.2413,-0.2409,-0.2405,-0.2413,-0.241,-0.2397,-0.2407,-0.2394,-0.2397,-0.2397,-0.2407,-0.2414,-0.2419,-0.2348,-0.2348,-0.2348,0,0,-0.2236,-0.2246,-0.2251,-0.2269,-0.2296,-0.2317,-0.2319,-0.2349,-0.238,-0.2398,-0.2418,-0.2423,-0.2414,-0.2433,-0.2436,-0.2453,-0.2434,-0.2451,-0.2473,-0.2485,-0.2491,-0.2495,-0.2496,-0.2501,-0.245,-0.245,-0.245,0,-0.2236,-0.2253,-0.2257,-0.2276,-0.2301,-0.2315,-0.2338,-0.2365,-0.2397,-0.2421,-0.2414,-0.2444,-0.2433,-0.2461,-0.2479,-0.2464,-0.2462,-0.2452,-0.2491,-0.2496,-0.25,-0.25,-0.2504,-0.2453,-0.2452,-0.2452,-0.2452,0,-0.2256,-0.2269,-0.2268,-0.2301,-0.233,-0.2339,-0.2375,-0.2402,-0.2428,-0.2461,-0.249,-0.2481,-0.2502,-0.2501,-0.2492,-0.2521,-0.2508,-0.2499,-0.2476,-0.2509,-0.2507,-0.251,-0.2456,-0.2455,-0.2454,-0.2454,0,0,-0.2224,-0.2271,-0.227,-0.2302,-0.2341,-0.2369,-0.2415,-0.2462,-0.2508,-0.252,-0.2572,-0.2574,-0.2568,-0.2571,-0.2559,-0.256,-0.2583,-0.2539,-0.2539,-0.2539,-0.2603,-0.2476,-0.2467,-0.258,-0.2581,-0.2582,-0.259,0,-0.2229,-0.2273,-0.2303,-0.2354,-0.237,-0.2415,-0.2463,-0.2519,-0.2555,-0.2603,-0.26,-0.2631,-0.2596,-0.2601,-0.26,-0.2591,-0.2595,-0.2581,-0.2572,-0.2572,-0.2454,-0.2468,-0.2308,-0.2291,-0.2594,-0.2594,-0.2594,0,-0.2225,-0.2259,-0.2303,-0.2384,-0.2398,-0.2446,-0.2537,-0.2583,-0.2646,-0.2672,-0.2694,-0.2697,-0.2704,-0.2666,-0.2659,-0.2651,-0.2632,-0.2615,-0.2615,-0.2483,-0.2451,-0.2308,-0.2286,-0.26,-0.26,-0.2599,-0.2599,0,-0.2194,-0.2259,-0.2301,-0.2326,-0.2412,-0.2462,-0.2522,-0.2602,-0.2658,-0.2713,-0.2752,-0.2755,-0.2762,-0.2737,-0.2687,-0.2684,-0.2669,-0.2665,-0.2536,-0.2528,-0.2381,-0.2356,-0.2668,-0.2668,-0.2668,-0.2668,-0.2668,0,-0.2169,-0.2192,-0.2294,-0.2313,-0.24,-0.2462,-0.2556,-0.2616,-0.2693,-0.2755,-0.2777,-0.2796,-0.2781,-0.2766,-0.2715,-0.2618,-0.2692,-0.2536,-0.2519,-0.2389,-0.2366,-0.2625,-0.262,-0.2669,-0.2669,-0.2669,-0.2668,0,-0.2088,-0.2148,-0.2207,-0.2324,-0.2379,-0.2439,-0.2596,-0.266,-0.2722,-0.2801,-0.2817,-0.2847,-0.2779,-0.2745,-0.2699,-0.2645,-0.2572,-0.2526,-0.2361,-0.2322,-0.2423,-0.242,-0.2392,-0.2388,-0.2384,-0.2381,-0.2378,0,-0.2053,-0.2066,-0.2215,-0.2298,-0.2353,-0.2466,-0.2553,-0.2659,-0.2729,-0.2807,-0.2837,-0.2808,-0.2718,-0.2594,-0.2494,-0.2373,-0.2448,-0.2191,-0.2146,-0.2408,-0.2394,-0.2397,-0.24,-0.1982,-0.1976,-0.1972,-0.1968,0,-0.1992,-0.2039,-0.2098,-0.2252,-0.2374,-0.2485,-0.2613,-0.2649,-0.2745,-0.2741,-0.2683,-0.2598,-0.2515,-0.2278,-0.2171,-0.2087,-0.2189,-0.2089,-0.2419,-0.206,-0.2016,-0.2004,-0.2021,-0.1926,-0.1931,-0.1934,-0.1936,-0.1937,-0.1956,-0.1975,-0.2078,-0.2205,-0.2349,-0.243,-0.2411,-0.2491,-0.246,-0.2384,-0.2455,-0.2259,-0.2238,-0.192,-0.1806,-0.1747,-0.1885,-0.1823,-0.184,-0.1861,-0.1795,-0.1745,-0.1593,-0.1595,-0.1597,-0.1599,-0.16,0,-0.1888,-0.1921,-0.205,-0.2158,-0.2228,-0.2344,-0.2393,-0.2271,-0.2086,-0.2128,-0.1987,-0.1746,-0.1589,-0.1574,-0.1428,-0.1393,-0.141,-0.1326,-0.1365,-0.1406,-0.1443,-0.1358,-0.1039,-0.1037,-0.1035,-0.1034,0,0,-0.1872,-0.1912,-0.1953,-0.2011,-0.2062,-0.1995,-0.1938,-0.1756,-0.1695,-0.149,-0.1422,-0.1514,-0.1552,-0.1301,-0.1233,-0.112,-0.1253,-0.1063,-0.1516,-0.1605,-0.1639,-0.1731,-0.1646,0,0,0,0,0]},{"header":{"parameterUnit":"m.s-1","parameterCategory":2,"la1":30.2991,"la2":30.254,"lo1":-89.0895,"lo2":-89.0444,"dy":0.0017,"dx":0.0017,"nx":28,"ny":28,"refTime":"2024-09-02T09:00:00:Z","depth":"2","parameterNumber":3,"parameterNumberName":"V-component_of_CURRENTS"},"data":[0,0,0,0,0,0,0,0,0,0,0,0,0,0,0,0,0,0,0,0,0,0,0,0,0,0,0,0,0,0,0,0,0,0,0,0,0,0,0,0,0,0,0,0,0,0,0,0,0,0,0,0,0,0,0,0,0,0,-0.0099,-0.0098,0,-0.003,-0.0029,-0.0028,-0.0095,-0.0097,-0.01,-0.0103,-0.0023,-0.0018,-0.0013,0,0,0,0,0,0,0,0,0,0,0,0,0,-0.0218,-0.0216,-0.0099,-0.0098,-0.0097,-0.003,-0.0029,-0.0028,-0.0094,-0.0098,-0.0101,-0.0104,-0.0024,-0.0019,-0.0013,0,0,0,0,0,0,0,0,0,0,0,0,0,-0.0158,-0.0215,-0.0099,-0.0123,-0.0125,-0.003,-0.0029,-0.0027,-0.0094,-0.0098,-0.0102,-0.0106,-0.0026,-0.0019,-0.0012,0.0114,0,0,0.0009,0.0013,0,0,0,0,0,0,0,0,-0.0162,-0.0154,-0.012,-0.0121,-0.0123,-0.0076,-0.0041,0.002,-0.0092,-0.0104,-0.0103,-0.0108,-0.0037,-0.0029,-0.0006,0.0118,0.0121,0.001,0.0014,0.0017,0.0019,0,0,0,0,0,0,0,-0.0166,-0.0157,-0.007,-0.0119,-0.0121,-0.0113,-0.011,-0.003,-0.0047,-0.0103,-0.0108,-0.0101,-0.0038,-0.0012,-0.0004,0.0123,0.001,0.0016,0.0021,0.0023,0.0146,0.0145,0,0,0,0,0,0,-0.0175,-0.016,-0.0072,-0.0068,-0.0154,-0.0108,-0.0104,-0.0086,-0.0048,-0.0047,-0.0098,-0.0104,-0.0022,-0.0012,-0.0002,-0.0016,0.0017,0.0024,0.0028,0.0147,0.0146,0.0145,0,0,0,0,0,0,-0.0177,-0.0167,-0.0075,-0.0115,-0.0103,-0.0102,-0.0081,-0.0082,-0.0092,-0.0044,-0.0044,-0.0111,-0.0025,-0.0012,0.0,-0.0007,0.0027,0.0034,0.0148,0.0146,0.0145,0.0063,0,0,0,0,0,0,-0.0181,-0.0168,-0.0185,-0.0115,-0.0101,-0.006,-0.0077,-0.0078,-0.0079,-0.0089,-0.0053,-0.0049,-0.0027,-0.0011,0.0007,0.0003,0.0039,0.0149,0.0147,0.0145,0.0067,0.0059,0.0052,0,0,0,0,0,-0.0185,-0.0195,-0.0186,-0.0177,-0.0115,-0.006,-0.0054,-0.0066,-0.0076,-0.0087,-0.0086,-0.0052,-0.001,-0.0005,0.0016,0.0014,0.015,0.0148,0.0146,0.0071,0.0061,0.0052,0,0,0,0,0,0,-0.0265,-0.0199,-0.019,-0.0183,-0.0142,-0.0074,-0.0079,-0.0068,-0.0066,-0.0086,-0.0047,-0.0042,-0.004,0.0005,0.001,0.0039,0.0072,0.0074,0.0008,-0.0001,-0.0008,-0.0017,0.0045,0,0,0,0,0,-0.0281,-0.0281,-0.0201,-0.0207,-0.017,-0.0119,-0.0106,-0.0106,-0.0079,-0.0084,-0.0061,-0.0039,-0.0017,-0.0002,0.0026,0.0071,0.0123,0.0077,0.0069,0.0063,0.0067,0.0128,0.0127,0.0137,0.0137,0.0137,0,0,-0.0309,-0.0284,-0.0281,-0.0227,-0.0181,-0.015,-0.0122,-0.0103,-0.0118,-0.0067,-0.0088,-0.0058,-0.0015,-0.0005,0.0003,0.0025,0.0084,0.006,0.0054,0.0062,0.0126,0.0125,0.0124,0.0136,0.0136,0.0136,0,0,-0.0351,-0.0331,-0.0323,-0.0284,-0.0235,-0.0203,-0.0199,-0.0135,-0.015,-0.0141,-0.013,-0.0109,-0.006,-0.004,-0.0018,-0.0032,0.0037,-0.003,-0.0059,-0.0001,-0.0001,0.0,0.0055,0.0062,-0.0026,-0.0026,-0.0026,0,-0.0395,-0.0373,-0.0319,-0.0292,-0.0284,-0.0226,-0.0216,-0.0198,-0.0166,-0.0169,-0.0176,-0.0111,-0.0075,-0.0047,-0.0077,-0.0046,-0.0008,-0.003,-0.0009,-0.0007,-0.0005,0.0052,0.006,-0.003,-0.003,-0.0029,-0.0029,0,-0.041,-0.0396,-0.0381,-0.0341,-0.033,-0.0312,-0.0267,-0.0271,-0.0274,-0.0251,-0.0238,-0.0185,-0.0145,-0.0132,-0.011,-0.0077,-0.0055,-0.0032,0.0015,-0.0011,0.005,0.006,-0.0036,-0.0035,-0.0034,-0.0033,0,0,-0.0471,-0.0408,-0.0404,-0.0404,-0.036,-0.0352,-0.0364,-0.0347,-0.0357,-0.0325,-0.032,-0.0277,-0.0231,-0.0203,-0.0155,-0.0103,-0.0059,-0.0071,-0.0066,-0.0014,0.0065,0.0058,0.0069,-0.0037,-0.0036,-0.0035,0.0098,0,-0.0495,-0.0479,-0.0456,-0.047,-0.044,-0.0422,-0.0444,-0.044,-0.0422,-0.0401,-0.033,-0.0303,-0.0262,-0.0239,-0.0182,-0.0084,-0.0036,-0.0097,0.0081,0.0086,0.0085,0.0079,0.0063,0.0177,0.0109,0.011,0.0112,0,-0.0508,-0.0494,-0.0505,-0.0524,-0.0514,-0.0542,-0.0571,-0.0582,-0.053,-0.0512,-0.0447,-0.0379,-0.0289,-0.0256,-0.0089,-0.0134,-0.005,0.0026,0.0034,0.0066,0.0098,0.0194,0.0199,0.0129,0.0128,0.0127,0.0125,0,-0.0567,-0.0546,-0.058,-0.0574,-0.0567,-0.061,-0.0635,-0.0615,-0.0633,-0.0563,-0.0532,-0.0422,-0.034,-0.0227,-0.006,-0.0079,0.0128,0.0131,0.0205,0.0207,0.0249,0.0251,0.0234,0.0234,0.0234,0.0234,0.0233,0,-0.0604,-0.0618,-0.0611,-0.0616,-0.069,-0.0671,-0.0748,-0.0739,-0.071,-0.0697,-0.0585,-0.0517,-0.0329,-0.018,-0.0063,0.0114,0.0135,0.0204,0.0241,0.0217,0.0214,0.0218,0.0215,0.0239,0.0237,0.0236,0.0236,0,-0.0649,-0.0634,-0.0669,-0.0689,-0.0711,-0.0771,-0.084,-0.088,-0.0817,-0.0781,-0.0756,-0.0572,-0.038,-0.0192,0.0029,0.0127,0.0281,0.0333,0.0289,0.0317,0.0317,0.0307,0.042,0.0421,0.0421,0.0422,0.0422,0,-0.0676,-0.069,-0.074,-0.0803,-0.0825,-0.09,-0.0965,-0.095,-0.0966,-0.0804,-0.0783,-0.0571,-0.043,-0.0107,0.0103,0.031,0.0317,0.0412,0.0365,0.0311,0.0337,0.0326,0.0315,0.0397,0.0398,0.0398,0.0398,0,-0.0736,-0.0762,-0.0783,-0.0913,-0.1004,-0.1077,-0.1138,-0.1141,-0.1074,-0.0994,-0.0834,-0.0699,-0.0371,-0.0122,0.0158,0.0278,0.0371,0.042,0.0413,0.0332,0.0295,0.0318,0.0308,0.04,0.04,0.04,0.0399,0.0399,-0.0798,-0.084,-0.0916,-0.1045,-0.1146,-0.1223,-0.1249,-0.1247,-0.1212,-0.1031,-0.0901,-0.0659,-0.0398,-0.0011,0.0198,0.0406,0.0383,0.044,0.0438,0.0436,0.0388,0.0353,0.0461,0.0461,0.0461,0.0461,0.0461,0,-0.086,-0.0932,-0.107,-0.1187,-0.1313,-0.134,-0.1353,-0.1309,-0.1214,-0.1054,-0.0894,-0.0581,-0.0302,-0.0027,0.0287,0.045,0.0453,0.0488,0.0462,0.0458,0.0456,0.0408,0.0486,0.0487,0.0488,0.0488,0,0,-0.0908,-0.1042,-0.1118,-0.134,-0.1405,-0.1459,-0.1434,-0.1312,-0.1178,-0.0987,-0.0811,-0.0619,-0.0291,-0.0064,0.0163,0.0337,0.0352,0.0357,0.0317,0.0255,0.025,0.0409,0.0329,0,0,0,0,0]}],[{"header":{"parameterUnit":"m.s-1","parameterCategory":2,"la1":30.2991,"la2":30.254,"lo1":-89.0895,"lo2":-89.0444,"dy":0.0017,"dx":0.0017,"nx":28,"ny":28,"refTime":"2024-09-02T09:00:00:Z","depth":"4","parameterNumber":2,"parameterNumberName":"U-component_of_CURRENTS"},"data":[0,0,0,0,0,0,0,0,0,0,0,0,0,0,0,0,0,0,0,0,0,0,0,0,0,0,0,0,0,0,0,0,0,0,0,0,0,0,0,0,0,0,0,0,0,0,0,0,0,0,0,0,0,0,0,0,0,0,-0.0738,-0.0739,0,-0.0808,-0.0809,-0.081,-0.0852,-0.0851,-0.0851,-0.0851,-0.0918,-0.0921,-0.0923,0,0,0,0,0,0,0,0,0,0,0,0,0,-0.0676,-0.0678,-0.0738,-0.0739,-0.0739,-0.0807,-0.0809,-0.0811,-0.0852,-0.0851,-0.0851,-0.0851,-0.0918,-0.092,-0.0923,0,0,0,0,0,0,0,0,0,0,0,0,0,-0.0726,-0.0678,-0.0738,-0.0763,-0.0765,-0.0807,-0.0809,-0.0811,-0.0852,-0.0851,-0.0851,-0.085,-0.0917,-0.092,-0.0923,-0.0955,0,0,-0.0933,-0.0935,0,0,0,0,0,0,0,0,-0.0723,-0.0729,-0.0759,-0.0761,-0.0764,-0.0815,-0.0812,-0.0857,-0.0852,-0.0826,-0.0851,-0.085,-0.088,-0.0886,-0.091,-0.0959,-0.0961,-0.0934,-0.0936,-0.0937,-0.0938,0,0,0,0,0,0,0,-0.072,-0.0727,-0.0772,-0.0759,-0.0762,-0.0782,-0.0789,-0.0821,-0.086,-0.0828,-0.083,-0.0827,-0.0882,-0.0907,-0.0911,-0.0962,-0.0933,-0.0936,-0.0938,-0.094,-0.1124,-0.1126,0,0,0,0,0,0,-0.0697,-0.0723,-0.077,-0.0774,-0.0735,-0.0783,-0.0791,-0.0804,-0.086,-0.0866,-0.0828,-0.0829,-0.0901,-0.0908,-0.0914,-0.1017,-0.0937,-0.094,-0.0942,-0.1121,-0.1124,-0.1127,0,0,0,0,0,0,-0.0696,-0.0702,-0.0767,-0.0744,-0.0753,-0.0784,-0.0799,-0.0806,-0.0859,-0.0859,-0.0866,-0.0875,-0.0901,-0.0909,-0.0972,-0.1018,-0.0941,-0.0944,-0.1117,-0.1122,-0.1126,-0.1184,0,0,0,0,0,0,-0.0694,-0.0701,-0.0723,-0.0743,-0.0753,-0.0802,-0.0799,-0.0807,-0.0853,-0.0856,-0.0901,-0.0905,-0.0901,-0.0967,-0.0975,-0.1021,-0.0947,-0.1114,-0.1119,-0.1125,-0.1178,-0.119,-0.12,0,0,0,0,0,-0.0692,-0.0715,-0.0724,-0.073,-0.0776,-0.0802,-0.0811,-0.0834,-0.0856,-0.0882,-0.0921,-0.0905,-0.1007,-0.0972,-0.0981,-0.1028,-0.1111,-0.1118,-0.1124,-0.1174,-0.1188,-0.1199,0,0,0,0,0,0,-0.0695,-0.0721,-0.0732,-0.0761,-0.0784,-0.0807,-0.0833,-0.0859,-0.0915,-0.0914,-0.094,-0.0948,-0.1022,-0.1025,-0.0985,-0.1101,-0.1059,-0.1067,-0.1093,-0.1107,-0.1117,-0.1135,-0.095,0,0,0,0,0,-0.0705,-0.0725,-0.0753,-0.077,-0.0792,-0.0825,-0.0848,-0.0853,-0.089,-0.0916,-0.0959,-0.1002,-0.1055,-0.1078,-0.1115,-0.1176,-0.1179,-0.1217,-0.1227,-0.1236,-0.126,-0.1312,-0.1329,-0.1149,-0.1149,-0.1149,0,0,-0.0703,-0.072,-0.073,-0.0772,-0.0797,-0.0834,-0.084,-0.0862,-0.0901,-0.0913,-0.1002,-0.1042,-0.1082,-0.115,-0.1184,-0.1158,-0.1285,-0.1244,-0.1251,-0.1271,-0.132,-0.1338,-0.1353,-0.1154,-0.1153,-0.1152,0,0,-0.0697,-0.0737,-0.0754,-0.0785,-0.0811,-0.0839,-0.0856,-0.0904,-0.0942,-0.1027,-0.1044,-0.1122,-0.1207,-0.1239,-0.1269,-0.1368,-0.1343,-0.1378,-0.1441,-0.1491,-0.1506,-0.1519,-0.1519,-0.1532,-0.1378,-0.1378,-0.1378,0,-0.0697,-0.0724,-0.0762,-0.0791,-0.0815,-0.0853,-0.0881,-0.0933,-0.0995,-0.1047,-0.1062,-0.1235,-0.1259,-0.1353,-0.1389,-0.1392,-0.1397,-0.1381,-0.1503,-0.1516,-0.1529,-0.1526,-0.1539,-0.1382,-0.1381,-0.1381,-0.1381,0,-0.0705,-0.0737,-0.0753,-0.0809,-0.0847,-0.0868,-0.0931,-0.0982,-0.1054,-0.113,-0.1262,-0.1321,-0.1433,-0.1447,-0.1456,-0.1557,-0.1523,-0.1509,-0.1462,-0.155,-0.1542,-0.1554,-0.1387,-0.1386,-0.1385,-0.1384,0,0,-0.0666,-0.0745,-0.075,-0.0786,-0.0853,-0.0886,-0.0952,-0.1046,-0.1127,-0.1236,-0.1362,-0.1481,-0.1552,-0.1591,-0.1607,-0.1648,-0.1729,-0.1622,-0.1623,-0.1607,-0.1809,-0.1648,-0.1645,-0.1732,-0.1735,-0.1738,-0.1757,0,-0.066,-0.0703,-0.0754,-0.0818,-0.0851,-0.0915,-0.1006,-0.1094,-0.119,-0.1327,-0.1435,-0.1581,-0.1596,-0.1663,-0.1716,-0.1736,-0.1771,-0.1724,-0.1742,-0.1742,-0.1576,-0.1658,-0.1749,-0.1766,-0.1769,-0.1771,-0.1773,0,-0.0647,-0.0678,-0.0724,-0.0839,-0.0871,-0.0927,-0.1053,-0.1158,-0.1336,-0.1418,-0.1567,-0.1668,-0.1799,-0.1785,-0.189,-0.1859,-0.1857,-0.1851,-0.1851,-0.1695,-0.1605,-0.1671,-0.1795,-0.1793,-0.1792,-0.179,-0.1789,0,-0.058,-0.0666,-0.0702,-0.0734,-0.087,-0.0915,-0.103,-0.1188,-0.1294,-0.15,-0.1569,-0.1762,-0.1842,-0.1917,-0.1931,-0.1935,-0.1983,-0.1985,-0.1829,-0.1816,-0.1925,-0.1911,-0.2051,-0.205,-0.205,-0.205,-0.205,0,-0.0546,-0.0581,-0.0678,-0.07,-0.0779,-0.0922,-0.1047,-0.1162,-0.1357,-0.145,-0.165,-0.1687,-0.188,-0.1922,-0.1954,-0.1914,-0.2015,-0.186,-0.1827,-0.1945,-0.1934,-0.1931,-0.1917,-0.2051,-0.2051,-0.2051,-0.2051,0,-0.047,-0.0527,-0.0576,-0.0702,-0.0739,-0.0822,-0.1023,-0.111,-0.1318,-0.141,-0.1484,-0.167,-0.1742,-0.1852,-0.1932,-0.1897,-0.1903,-0.1845,-0.1933,-0.1899,-0.1702,-0.1692,-0.1739,-0.1734,-0.1729,-0.1726,-0.1723,0,-0.0443,-0.045,-0.0542,-0.0551,-0.0602,-0.0734,-0.0798,-0.1044,-0.1098,-0.1325,-0.1315,-0.1486,-0.1563,-0.16,-0.1714,-0.1793,-0.1763,-0.1749,-0.1786,-0.1717,-0.168,-0.1676,-0.1671,-0.1716,-0.1715,-0.1713,-0.1712,0,-0.0383,-0.0409,-0.0449,-0.0443,-0.0475,-0.0559,-0.066,-0.071,-0.0947,-0.1071,-0.1171,-0.1297,-0.135,-0.15,-0.1553,-0.159,-0.1778,-0.1705,-0.1715,-0.175,-0.1689,-0.1656,-0.1656,-0.1697,-0.1699,-0.1701,-0.1702,0,-0.0337,-0.033,-0.0346,-0.0351,-0.0358,-0.0389,-0.0496,-0.0574,-0.0714,-0.0945,-0.0922,-0.1129,-0.127,-0.1381,-0.1408,-0.1472,-0.1495,-0.1473,-0.1497,-0.1515,-0.1438,-0.1328,-0.1213,0,0,0,0,0,-0.0283,-0.0258,-0.0249,-0.0242,-0.0238,-0.0268,-0.0374,-0.0492,-0.0631,-0.066,-0.0841,-0.09,-0.1071,-0.1186,-0.1224,-0.1304,-0.1479,-0.1336,-0.1458,-0.1613,-0.1631,-0.1565,0,0,0,0,0,0,-0.0245,-0.0223,-0.0217,-0.0132,-0.0114,-0.0131,-0.0224,-0.0349,-0.0413,-0.0567,-0.0692,-0.0788,-0.0992,-0.1029,-0.1182,-0.1211,-0.1262,-0.1451,-0.1448,-0.1603,-0.1619,-0.1633,-0.1571,0,0,0,0,0]},{"header":{"parameterUnit":"m.s-1","parameterCategory":2,"la1":30.2991,"la2":30.254,"lo1":-89.0895,"lo2":-89.0444,"dy":0.0017,"dx":0.0017,"nx":28,"ny":28,"refTime":"2024-09-02T09:00:00:Z","depth":"4","parameterNumber":3,"parameterNumberName":"V-component_of_CURRENTS"},"data":[0,0,0,0,0,0,0,0,0,0,0,0,0,0,0,0,0,0,0,0,0,0,0,0,0,0,0,0,0,0,0,0,0,0,0,0,0,0,0,0,0,0,0,0,0,0,0,0,0,0,0,0,0,0,0,0,0,0,-0.0094,-0.0094,0,-0.0076,-0.0075,-0.0075,-0.0031,-0.0031,-0.003,-0.003,0.0023,0.0024,0.0025,0,0,0,0,0,0,0,0,0,0,0,0,0,-0.0084,-0.0084,-0.0094,-0.0094,-0.0094,-0.0076,-0.0075,-0.0075,-0.0032,-0.0031,-0.003,-0.003,0.0023,0.0024,0.0025,0,0,0,0,0,0,0,0,0,0,0,0,0,-0.0075,-0.0084,-0.0094,-0.0074,-0.0072,-0.0076,-0.0075,-0.0075,-0.0032,-0.0031,-0.003,-0.0029,0.0023,0.0024,0.0026,0.0019,0,0,0.003,0.003,0,0,0,0,0,0,0,0,-0.0076,-0.0075,-0.0077,-0.0075,-0.0073,-0.0059,-0.0052,-0.0043,-0.0032,-0.0042,-0.003,-0.0029,-0.0004,-0.0001,0.0007,0.0021,0.0024,0.003,0.0031,0.0031,0.0032,0,0,0,0,0,0,0,-0.0076,-0.0076,-0.0082,-0.0077,-0.0075,-0.0063,-0.0061,-0.005,-0.0024,-0.0042,-0.0039,-0.0044,-0.0002,0.0005,0.0008,0.0025,0.003,0.0031,0.0032,0.0033,0.0067,0.0067,0,0,0,0,0,0,-0.0089,-0.0076,-0.0083,-0.0082,-0.0078,-0.0065,-0.0062,-0.0061,-0.0025,-0.002,-0.0045,-0.0043,0.0002,0.0007,0.001,0.0007,0.0031,0.0033,0.0034,0.0067,0.0067,0.0067,0,0,0,0,0,0,-0.0088,-0.0089,-0.0084,-0.0083,-0.0082,-0.0066,-0.0065,-0.0061,-0.0047,-0.0029,-0.0022,-0.0036,0.0003,0.0008,0.002,0.001,0.0033,0.0035,0.0067,0.0067,0.0067,-0.0,0,0,0,0,0,0,-0.0088,-0.0089,-0.0087,-0.0083,-0.0082,-0.0092,-0.0066,-0.0061,-0.0054,-0.005,-0.0019,-0.0013,0.0004,0.0018,0.0021,0.0012,0.0036,0.0067,0.0067,0.0067,0.0002,-0.0003,-0.0006,0,0,0,0,0,-0.0087,-0.0091,-0.0087,-0.0088,-0.0082,-0.0093,-0.0091,-0.0074,-0.0054,-0.0056,-0.0032,-0.0014,0.0022,0.0018,0.0023,0.0014,0.0066,0.0067,0.0067,0.0004,-0.0002,-0.0006,0,0,0,0,0,0,-0.0084,-0.0088,-0.0083,-0.0086,-0.0093,-0.0087,-0.0087,-0.0075,-0.0056,-0.0052,-0.002,-0.0013,-0.0001,0.0016,0.0012,0.0027,0.005,0.0051,0.0,-0.0005,-0.0009,-0.0004,0.0037,0,0,0,0,0,-0.0086,-0.0092,-0.0094,-0.0101,-0.0102,-0.0093,-0.0092,-0.0089,-0.0078,-0.0068,-0.0047,-0.0022,0.0001,0.0006,0.0028,0.0025,0.0057,0.0027,0.0023,0.0019,0.0028,0.0069,0.0069,0.0067,0.0067,0.0067,0,0,-0.0088,-0.0093,-0.0096,-0.0102,-0.0101,-0.012,-0.0089,-0.01,-0.0119,-0.0067,-0.0073,-0.0034,0.0001,0.0004,0.0011,0.0015,0.0032,0.0019,0.0015,0.0027,0.0069,0.0069,0.0069,0.0067,0.0067,0.0067,0,0,-0.0109,-0.0099,-0.0114,-0.0125,-0.0138,-0.0139,-0.0144,-0.0142,-0.0138,-0.0144,-0.0102,-0.0065,-0.005,-0.0019,-0.0002,-0.0013,0.0016,-0.0012,-0.0041,-0.0002,-0.0001,-0.0001,0.0019,0.0022,-0.0023,-0.0023,-0.0023,0,-0.0112,-0.0132,-0.0121,-0.0146,-0.0165,-0.015,-0.0182,-0.0181,-0.0179,-0.0178,-0.0155,-0.0086,-0.0057,-0.003,-0.0033,-0.0023,-0.0004,-0.0031,-0.0008,-0.0006,-0.0004,0.0016,0.002,-0.0027,-0.0026,-0.0026,-0.0026,0,-0.0148,-0.0167,-0.0179,-0.0207,-0.0225,-0.025,-0.0261,-0.0271,-0.0259,-0.0249,-0.0214,-0.0153,-0.0103,-0.0093,-0.0069,-0.0041,-0.0034,-0.0014,-0.0,-0.0009,0.0013,0.0019,-0.0031,-0.003,-0.0029,-0.0028,0,0,-0.0143,-0.0194,-0.0198,-0.0236,-0.0263,-0.0291,-0.0322,-0.0342,-0.0362,-0.0318,-0.0311,-0.0241,-0.0177,-0.015,-0.0098,-0.0068,-0.0043,-0.0045,-0.0041,-0.0034,0.0024,0.0004,0.0009,-0.0026,-0.0025,-0.0024,0.0026,0,-0.0174,-0.0239,-0.0255,-0.0329,-0.0365,-0.0378,-0.0411,-0.043,-0.0426,-0.0417,-0.0324,-0.029,-0.021,-0.0179,-0.0126,-0.0055,-0.0027,-0.0059,0.004,0.0043,0.002,0.0015,-0.0021,0.003,0.0032,0.0033,0.0033,0,-0.0199,-0.0245,-0.0317,-0.0403,-0.0419,-0.0462,-0.0521,-0.0548,-0.053,-0.0514,-0.0438,-0.0369,-0.0273,-0.0219,-0.0075,-0.0102,-0.0041,0.0008,0.0011,0.0025,0.0034,0.0048,0.0044,0.0043,0.0043,0.0042,0.0041,0,-0.0206,-0.0292,-0.0357,-0.0385,-0.0467,-0.0509,-0.0548,-0.057,-0.0602,-0.0562,-0.0561,-0.0426,-0.0362,-0.0239,-0.011,-0.0095,0.0014,0.0051,0.0089,0.0088,0.012,0.0119,0.013,0.013,0.013,0.013,0.013,0,-0.023,-0.0284,-0.0372,-0.0409,-0.0501,-0.0542,-0.0627,-0.064,-0.0656,-0.0671,-0.059,-0.0558,-0.0368,-0.0278,-0.0145,-0.001,0.0001,0.0089,0.0104,0.0088,0.0083,0.0123,0.0122,0.0132,0.0131,0.0131,0.0131,0,-0.0224,-0.0275,-0.0364,-0.0467,-0.0506,-0.057,-0.0686,-0.0734,-0.0744,-0.0756,-0.0737,-0.0654,-0.0511,-0.0356,-0.0177,-0.0075,0.0058,0.0088,0.0033,0.0043,0.0116,0.0111,0.0166,0.0166,0.0166,0.0166,0.0166,0,-0.0229,-0.0268,-0.0399,-0.0472,-0.0526,-0.0633,-0.0697,-0.0751,-0.0786,-0.0802,-0.0784,-0.0699,-0.0608,-0.0382,-0.0213,0.0014,0.0044,0.0088,0.0144,0.0113,0.0123,0.0117,0.0112,0.0165,0.0165,0.0165,0.0165,0,-0.0239,-0.0278,-0.0353,-0.0486,-0.0583,-0.0694,-0.0777,-0.0813,-0.0843,-0.0865,-0.0812,-0.0705,-0.0572,-0.0369,-0.023,-0.0058,0.006,0.0088,0.0091,0.0144,0.0113,0.0121,0.0116,0.0165,0.0165,0.0165,0.0165,0,-0.0238,-0.0292,-0.0383,-0.0501,-0.0619,-0.0703,-0.0773,-0.0811,-0.0845,-0.0839,-0.0819,-0.0691,-0.0615,-0.041,-0.0263,-0.0114,-0.0044,0.0006,0.0015,0.0017,-0.0035,-0.0097,-0.0096,0,0,0,0,0,-0.0218,-0.0275,-0.0402,-0.0518,-0.0626,-0.0689,-0.0794,-0.0845,-0.087,-0.0826,-0.0823,-0.0688,-0.0486,-0.0415,-0.0257,-0.024,-0.0016,-0.0054,0.0048,0.0162,0.0162,0.0125,0,0,0,0,0,0,-0.0219,-0.0302,-0.038,-0.0488,-0.0566,-0.067,-0.0742,-0.0776,-0.0758,-0.0771,-0.0661,-0.0635,-0.0432,-0.054,-0.0237,-0.02,-0.0117,0.0035,0.0038,0.0161,0.0162,0.0162,0.0124,0,0,0,0,0]}]]